Fallon NAS, NV

9:06 AM PDT on May 24, 2017 (GMT -0700)
Fallon Naval Air Station

Weather History for KNFL - January, 2014

Change the Weather History Date:

Sunday, January 12, 2014

  Actual Average Record
Temperature  
Mean Temperature 36 °F -  
Max Temperature 48 °F 44 °F 64 °F (1969)
Min Temperature 24 °F 18 °F -11 °F (1963)
Degree Days  
Heating Degree Days 29    
Moisture  
Dew Point 19 °F    
Average Humidity 53    
Maximum Humidity 75    
Minimum Humidity 28    
Precipitation  
Precipitation 0.00 in - - ()
Sea Level Pressure  
Sea Level Pressure 30.22 in    
Wind  
Wind Speed 5 mph (ESE)    
Max Wind Speed 9 mph    
Max Gust Speed -    
Visibility 10 miles    
Events      
Averages and records for this station are not official NWS values.
T = Trace of Precipitation, MM = Missing Value Source: NWS Daily Summary

Daily Weather History Graph

Daily Weather History Graph

Search for Another Location

Airport or City:

Trip Planner

Search our weather history database for the weather conditions in past years. The results will help you decide how hot, cold, wet, or windy it might be!

Date:

Astronomy

Jan. 12, 2014 Rise Set
Actual Time 7:14 AM PST 4:52 PM PST
Civil Twilight 6:44 AM PST 5:22 PM PST
Nautical Twilight 6:11 AM PST 5:55 PM PST
Astronomical Twilight 5:39 AM PST 6:27 PM PST
Moon 2:24 PM PST (1/12) 4:17 AM PST (1/12)
Length of Visible Light 10h 37m
Length of Day
9h 38m
Waxing Gibbous, 90% of the Moon is Illuminated
Jan 12
Waxing Gibbous
Jan 15
Full
Jan 23
Last Quarter
Jan 30
New
Feb 6
First Quarter

Hourly Weather History & Observations

Time (PST) Temp. Windchill Dew Point Humidity Pressure Visibility Wind Dir Wind Speed Gust Speed Precip Events Conditions
12:56 AM 35.1 °F 30.1 °F 23.0 °F 61% 30.04 in 10.0 mi North 5.8 mph - N/A   Clear
1:56 AM 34.0 °F 27.2 °F 21.9 °F 61% 30.06 in 10.0 mi ENE 8.1 mph - N/A   Clear
2:56 AM 32.0 °F 24.2 °F 23.0 °F 69% 30.07 in 10.0 mi NE 9.2 mph - N/A   Clear
3:56 AM 28.9 °F - 21.9 °F 75% 30.07 in 10.0 mi Calm Calm - N/A   Clear
4:56 AM 30.0 °F 23.2 °F 19.9 °F 66% 30.10 in 10.0 mi NE 6.9 mph - N/A   Clear
5:56 AM 28.0 °F 24.2 °F 19.0 °F 69% 30.12 in 10.0 mi ESE 3.5 mph - N/A   Clear
6:56 AM 24.1 °F 18.2 °F 17.1 °F 75% 30.16 in 10.0 mi SSE 4.6 mph - N/A   Clear
7:56 AM 27.0 °F 21.6 °F 19.9 °F 75% 30.17 in 10.0 mi South 4.6 mph - N/A   Clear
8:56 AM 35.1 °F 29.3 °F 21.0 °F 57% 30.21 in 10.0 mi SSE 6.9 mph - N/A   Clear
9:56 AM 39.0 °F 36.8 °F 21.0 °F 49% 30.22 in 10.0 mi SW 3.5 mph - N/A   Clear
10:56 AM 42.1 °F 39.2 °F 19.9 °F 41% 30.22 in 10.0 mi West 4.6 mph - N/A   Clear
11:01 AM 43.0 °F - 19.9 °F 40% 30.35 in 10.0 mi Calm Calm - N/A   Scattered Clouds
11:56 AM 45.0 °F 40.6 °F 17.1 °F 33% 30.23 in 10.0 mi NW 8.1 mph - N/A   Scattered Clouds
12:56 PM 46.9 °F - 17.1 °F 30% 30.22 in 10.0 mi Variable 6.9 mph - N/A   Scattered Clouds
1:56 PM 46.0 °F 44.8 °F 16.0 °F 30% 30.22 in 10.0 mi Variable 3.5 mph - N/A   Scattered Clouds
2:56 PM 48.0 °F - 16.0 °F 28% 30.25 in 10.0 mi North 5.8 mph - N/A   Scattered Clouds
3:56 PM 46.9 °F - 16.0 °F 29% 30.25 in 10.0 mi North 4.6 mph - N/A   Scattered Clouds
4:56 PM 42.1 °F 39.2 °F 17.1 °F 37% 30.27 in 10.0 mi NNW 4.6 mph - N/A   Scattered Clouds
5:56 PM 37.0 °F - 18.0 °F 46% 30.28 in 10.0 mi Calm Calm - N/A   Partly Cloudy
6:56 PM 34.0 °F 29.8 °F 18.0 °F 52% 30.30 in 10.0 mi SSW 4.6 mph - N/A   Clear
7:56 PM 35.1 °F 32.2 °F 18.0 °F 50% 30.33 in 10.0 mi North 3.5 mph - N/A   Clear
8:56 PM 27.0 °F 18.0 °F 16.0 °F 63% 30.35 in 10.0 mi SSE 9.2 mph - N/A   Clear
9:56 PM 26.1 °F 17.6 °F 16.0 °F 66% 30.35 in 10.0 mi SSE 8.1 mph - N/A   Clear
10:56 PM 26.1 °F 18.4 °F 16.0 °F 66% 30.35 in 10.0 mi SSE 6.9 mph - N/A   Clear
11:56 PM 26.1 °F 18.4 °F 16.0 °F 66% 30.36 in 10.0 mi South 6.9 mph - N/A   Clear